QPF
0.01 0.03 0.02 0.01 0.00 0.00 0.00 0.00 0.01 0.02 0.03 0.05 0.05 0.05 0.03 0.02 0.01 0.01 0.02 0.02 0.01 0.02 0.02 0.02 0.02 0.02 0.01 0.02 0.02 0.02 0.03 0.04 0.04 0.04 0.04 0.04 0.06 0.06 0.04 0.03 0.03 0.04 0.04
0.02 0.03 0.01 0.00 0.00 0.00 0.00 0.00 0.00 0.00 0.01 0.01 0.02 0.03 0.03 0.02 0.02 0.02 0.02 0.03 0.03 0.03 0.02 0.02 0.02 0.01 0.01 0.02 0.02 0.02 0.02 0.02 0.02 0.03 0.06 0.05 0.05 0.05 0.05 0.04 0.03 0.03 0.04
0.01 0.03 0.01 0.00 0.00 0.00 0.00 0.00 0.00 0.00 0.00 0.00 0.01 0.01 0.02 0.03 0.03 0.03 0.02 0.03 0.03 0.03 0.02 0.02 0.02 0.01 0.01 0.02 0.02 0.02 0.03 0.02 0.03 0.03 0.05 0.04 0.02 0.02 0.04 0.04 0.04 0.03 0.03
0.01 0.01 0.00 0.00 0.00 0.00 0.00 0.00 0.00 0.00 0.00 0.00 0.00 0.00 0.01 0.01 0.02 0.02 0.02 0.03 0.04 0.04 0.02 0.02 0.03 0.02 0.02 0.02 0.01 0.01 0.02 0.02 0.03 0.03 0.04 0.04 0.04 0.02 0.02 0.04 0.05 0.04 0.04
0.01 0.01 0.00 0.00 0.00 0.00 0.00 0.00 0.00 0.00 0.01 0.01 0.00 0.00 0.00 0.01 0.02 0.02 0.03 0.03 0.04 0.04 0.03 0.03 0.03 0.03 0.02 0.01 0.01 0.02 0.02 0.03 0.03 0.03 0.03 0.04 0.04 0.03 0.02 0.03 0.03 0.03 0.02
0.01 0.01 0.00 0.00 0.01 0.00 0.00 0.00 0.00 0.00 0.00 0.01 0.00 0.00 0.00 0.01 0.02 0.03 0.03 0.03 0.03 0.03 0.04 0.04 0.03 0.04 0.03 0.02 0.01 0.01 0.01 0.02 0.02 0.03 0.03 0.04 0.04 0.04 0.05 0.04 0.03 0.03 0.02
0.02 0.01 0.00 0.00 0.00 0.01 0.01 0.01 0.00 0.00 0.00 0.01 0.01 0.00 0.00 0.01 0.01 0.02 0.02 0.02 0.02 0.02 0.03 0.04 0.04 0.04 0.04 0.04 0.04 0.03 0.03 0.03 0.04 0.04 0.04 0.04 0.05 0.06 0.07 0.07 0.05 0.04 0.03
0.02 0.01 0.01 0.01 0.01 0.01 0.01 0.02 0.02 0.01 0.00 0.00 0.01 0.01 0.01 0.01 0.02 0.03 0.03 0.03 0.02 0.01 0.03 0.05 0.07 0.06 0.06 0.06 0.06 0.05 0.04 0.05 0.05 0.04 0.04 0.04 0.05 0.07 0.09 0.10 0.09 0.05 0.03
0.03 0.03 0.04 0.03 0.03 0.03 0.02 0.02 0.02 0.01 0.01 0.01 0.01 0.02 0.03 0.03 0.03 0.04 0.04 0.03 0.03 0.02 0.04 0.06 0.12 0.11 0.05 0.05 0.06 0.06 0.06 0.07 0.06 0.05 0.05 0.04 0.05 0.06 0.07 0.10 0.12 0.10 0.06
0.04 0.04 0.07 0.09 0.07 0.05 0.03 0.03 0.04 0.03 0.02 0.02 0.03 0.04 0.05 0.05 0.05 0.05 0.05 0.05 0.04 0.04 0.04 0.07 0.11 0.09 0.06 0.07 0.08 0.06 0.06 0.06 0.06 0.07 0.08 0.08 0.07 0.05 0.07 0.10 0.11 0.12 0.10
0.03 0.03 0.05 0.08 0.10 0.07 0.04 0.04 0.05 0.04 0.04 0.05 0.06 0.06 0.07 0.08 0.08 0.06 0.06 0.06 0.05 0.04 0.04 0.05 0.08 0.10 0.13 0.14 0.11 0.08 0.08 0.08 0.06 0.07 0.08 0.08 0.11 0.10 0.08 0.10 0.10 0.10 0.12
0.02 0.03 0.03 0.04 0.06 0.06 0.04 0.05 0.05 0.05 0.06 0.06 0.05 0.05 0.07 0.09 0.09 0.07 0.07 0.07 0.06 0.05 0.04 0.05 0.06 0.06 0.08 0.09 0.10 0.08 0.08 0.10 0.09 0.09 0.10 0.09 0.11 0.10 0.10 0.12 0.11 0.10 0.11
0.05 0.04 0.05 0.06 0.07 0.07 0.08 0.08 0.10 0.08 0.08 0.09 0.07 0.07 0.05 0.06 0.08 0.07 0.08 0.07 0.08 0.10 0.11 0.08 0.06 0.06 0.08 0.08 0.08 0.09 0.09 0.10 0.11 0.12 0.13 0.12 0.13 0.09 0.09 0.11 0.10 0.07 0.06
0.08 0.05 0.05 0.11 0.16 0.13 0.15 0.18 0.20 0.16 0.14 0.11 0.08 0.07 0.05 0.07 0.09 0.08 0.07 0.08 0.11 0.15 0.13 0.10 0.08 0.09 0.08 0.07 0.07 0.07 0.07 0.07 0.07 0.07 0.07 0.09 0.09 0.09 0.12 0.11 0.08 0.07 0.06
0.10 0.09 0.15 0.12 0.10 0.09 0.11 0.14 0.18 0.18 0.17 0.13 0.08 0.06 0.06 0.10 0.14 0.09 0.08 0.11 0.14 0.14 0.12 0.10 0.10 0.10 0.09 0.07 0.06 0.07 0.05 0.05 0.04 0.05 0.06 0.08 0.09 0.10 0.12 0.10 0.08 0.08 0.08
0.09 0.08 0.14 0.25 0.13 0.12 0.10 0.11 0.13 0.13 0.11 0.10 0.08 0.08 0.09 0.10 0.09 0.08 0.10 0.12 0.14 0.12 0.09 0.09 0.12 0.12 0.10 0.11 0.11 0.09 0.06 0.05 0.04 0.05 0.07 0.08 0.08 0.07 0.07 0.08 0.09 0.10 0.10
0.10 0.08 0.08 0.17 0.19 0.21 0.17 0.10 0.09 0.10 0.12 0.11 0.08 0.10 0.13 0.13 0.10 0.09 0.09 0.10 0.09 0.08 0.10 0.10 0.13 0.11 0.11 0.14 0.13 0.09 0.06 0.06 0.06 0.06 0.06 0.04 0.03 0.04 0.05 0.08 0.10 0.11 0.11
0.12 0.11 0.08 0.07 0.07 0.11 0.14 0.11 0.09 0.12 0.13 0.10 0.07 0.06 0.09 0.12 0.11 0.09 0.09 0.10 0.09 0.07 0.09 0.11 0.16 0.16 0.14 0.14 0.11 0.07 0.04 0.04 0.05 0.05 0.04 0.03 0.02 0.03 0.04 0.06 0.07 0.08 0.08
0.14 0.15 0.14 0.12 0.09 0.08 0.09 0.09 0.10 0.10 0.08 0.07 0.06 0.06 0.08 0.10 0.10 0.09 0.07 0.06 0.06 0.06 0.09 0.10 0.09 0.10 0.10 0.10 0.07 0.04 0.03 0.03 0.04 0.03 0.03 0.03 0.03 0.04 0.05 0.04 0.04 0.04 0.04
0.13 0.14 0.17 0.16 0.12 0.10 0.07 0.06 0.06 0.07 0.07 0.07 0.08 0.10 0.10 0.08 0.08 0.07 0.06 0.05 0.05 0.05 0.06 0.06 0.07 0.09 0.08 0.08 0.06 0.05 0.04 0.05 0.04 0.04 0.04 0.03 0.03 0.03 0.03 0.03 0.03 0.02 0.02
0.09 0.08 0.13 0.14 0.11 0.10 0.08 0.09 0.09 0.08 0.08 0.08 0.08 0.09 0.10 0.08 0.07 0.07 0.07 0.06 0.05 0.06 0.05 0.06 0.07 0.07 0.07 0.08 0.08 0.07 0.06 0.06 0.05 0.04 0.04 0.03 0.02 0.03 0.05 0.04 0.03 0.03 0.02
0.17 0.08 0.08 0.11 0.09 0.09 0.09 0.10 0.11 0.10 0.10 0.08 0.08 0.09 0.07 0.06 0.05 0.06 0.06 0.08 0.07 0.07 0.06 0.06 0.07 0.05 0.06 0.06 0.07 0.08 0.08 0.07 0.05 0.04 0.03 0.03 0.03 0.04 0.04 0.03 0.03 0.03 0.02
0.11 0.07 0.06 0.05 0.05 0.05 0.06 0.07 0.09 0.10 0.08 0.05 0.04 0.04 0.05 0.07 0.07 0.07 0.07 0.09 0.08 0.06 0.06 0.07 0.06 0.05 0.05 0.06 0.08 0.09 0.07 0.06 0.05 0.03 0.04 0.04 0.05 0.05 0.05 0.05 0.04 0.03 0.01
0.04 0.04 0.04 0.04 0.03 0.05 0.08 0.08 0.08 0.08 0.06 0.05 0.04 0.03 0.03 0.04 0.04 0.04 0.05 0.07 0.07 0.07 0.09 0.09 0.08 0.09 0.09 0.11 0.12 0.09 0.07 0.07 0.08 0.07 0.07 0.06 0.06 0.05 0.05 0.04 0.04 0.04 0.04
0.03 0.03 0.03 0.03 0.03 0.06 0.09 0.14 0.15 0.10 0.07 0.06 0.05 0.04 0.03 0.03 0.03 0.03 0.03 0.04 0.05 0.06 0.08 0.08 0.08 0.09 0.11 0.13 0.14 0.12 0.10 0.11 0.11 0.09 0.07 0.07 0.07 0.07 0.07 0.06 0.06 0.06 0.05
0.02 0.03 0.02 0.02 0.02 0.03 0.04 0.06 0.11 0.11 0.07 0.05 0.04 0.03 0.02 0.02 0.03 0.03 0.02 0.03 0.04 0.05 0.05 0.05 0.05 0.06 0.07 0.08 0.08 0.08 0.08 0.08 0.08 0.08 0.08 0.07 0.08 0.09 0.09 0.08 0.06 0.04 0.03
MSLP
1012.97 1012.79 1012.67 1012.61 1012.64 1012.74 1012.94 1013.21 1013.55 1013.94 1014.34 1014.72 1015.03 1015.26 1015.39 1015.42 1015.37 1015.28 1015.17 1015.10 1015.09 1015.15 1015.29 1015.52 1015.80 1016.11 1016.43 1016.75 1017.06 1017.34 1017.60 1017.83 1018.04 1018.23 1018.38 1018.48 1018.52 1018.50 1018.43 1018.32 1018.19 1018.08 1018.00
1012.59 1012.47 1012.42 1012.42 1012.47 1012.59 1012.79 1013.08 1013.45 1013.88 1014.35 1014.80 1015.19 1015.48 1015.64 1015.67 1015.58 1015.42 1015.22 1015.05 1014.96 1014.96 1015.06 1015.28 1015.56 1015.89 1016.23 1016.56 1016.87 1017.14 1017.38 1017.61 1017.82 1018.02 1018.20 1018.35 1018.44 1018.47 1018.42 1018.31 1018.16 1017.99 1017.83
1012.02 1012.00 1012.04 1012.12 1012.23 1012.39 1012.60 1012.90 1013.29 1013.76 1014.28 1014.78 1015.23 1015.58 1015.77 1015.80 1015.69 1015.48 1015.22 1014.98 1014.82 1014.76 1014.83 1015.01 1015.27 1015.58 1015.90 1016.21 1016.48 1016.71 1016.93 1017.14 1017.35 1017.58 1017.80 1018.02 1018.18 1018.29 1018.30 1018.22 1018.06 1017.85 1017.63
1011.28 1011.37 1011.53 1011.71 1011.90 1012.11 1012.36 1012.67 1013.07 1013.55 1014.09 1014.63 1015.11 1015.49 1015.71 1015.77 1015.65 1015.43 1015.14 1014.87 1014.66 1014.56 1014.58 1014.72 1014.94 1015.21 1015.48 1015.73 1015.94 1016.12 1016.29 1016.47 1016.68 1016.92 1017.20 1017.48 1017.74 1017.93 1018.02 1018.00 1017.86 1017.64 1017.37
1010.45 1010.66 1010.94 1011.24 1011.53 1011.81 1012.09 1012.41 1012.80 1013.27 1013.80 1014.34 1014.84 1015.24 1015.49 1015.57 1015.48 1015.27 1014.99 1014.71 1014.48 1014.36 1014.35 1014.45 1014.63 1014.83 1015.04 1015.21 1015.35 1015.46 1015.56 1015.69 1015.88 1016.13 1016.44 1016.78 1017.10 1017.38 1017.55 1017.59 1017.50 1017.30 1017.01
1009.67 1009.98 1010.39 1010.81 1011.19 1011.53 1011.84 1012.17 1012.54 1012.97 1013.47 1013.98 1014.47 1014.88 1015.15 1015.26 1015.22 1015.05 1014.80 1014.55 1014.34 1014.21 1014.18 1014.24 1014.36 1014.51 1014.64 1014.73 1014.78 1014.81 1014.84 1014.90 1015.04 1015.27 1015.57 1015.93 1016.29 1016.62 1016.86 1016.96 1016.93 1016.77 1016.50
1009.06 1009.47 1009.98 1010.50 1010.96 1011.35 1011.69 1012.00 1012.34 1012.73 1013.17 1013.64 1014.11 1014.51 1014.80 1014.95 1014.96 1014.84 1014.65 1014.44 1014.26 1014.15 1014.11 1014.14 1014.22 1014.30 1014.36 1014.37 1014.34 1014.27 1014.21 1014.20 1014.26 1014.41 1014.66 1014.98 1015.33 1015.67 1015.93 1016.08 1016.11 1016.00 1015.79
1008.74 1009.22 1009.81 1010.40 1010.92 1011.34 1011.69 1011.98 1012.28 1012.61 1013.00 1013.42 1013.85 1014.24 1014.54 1014.73 1014.79 1014.75 1014.62 1014.47 1014.32 1014.23 1014.19 1014.19 1014.23 1014.25 1014.25 1014.19 1014.07 1013.92 1013.76 1013.64 1013.58 1013.63 1013.77 1013.99 1014.27 1014.55 1014.79 1014.96 1015.02 1014.98 1014.84
1008.77 1009.29 1009.92 1010.55 1011.09 1011.53 1011.86 1012.13 1012.39 1012.67 1013.00 1013.38 1013.77 1014.16 1014.48 1014.70 1014.82 1014.83 1014.77 1014.67 1014.57 1014.48 1014.44 1014.42 1014.42 1014.39 1014.33 1014.20 1014.01 1013.77 1013.51 1013.26 1013.08 1012.97 1012.95 1013.02 1013.16 1013.33 1013.50 1013.64 1013.71 1013.72 1013.66
1009.13 1009.66 1010.29 1010.92 1011.45 1011.88 1012.19 1012.44 1012.66 1012.91 1013.20 1013.55 1013.93 1014.31 1014.64 1014.90 1015.07 1015.14 1015.13 1015.08 1015.00 1014.93 1014.87 1014.83 1014.79 1014.71 1014.59 1014.40 1014.15 1013.82 1013.47 1013.10 1012.76 1012.48 1012.28 1012.16 1012.11 1012.12 1012.17 1012.23 1012.28 1012.32 1012.32
1009.71 1010.23 1010.83 1011.42 1011.92 1012.32 1012.62 1012.85 1013.06 1013.29 1013.58 1013.92 1014.29 1014.68 1015.04 1015.33 1015.54 1015.66 1015.69 1015.67 1015.61 1015.54 1015.47 1015.39 1015.31 1015.19 1015.02 1014.78 1014.46 1014.07 1013.62 1013.15 1012.66 1012.21 1011.81 1011.48 1011.22 1011.04 1010.94 1010.89 1010.89 1010.92 1010.96
1010.36 1010.85 1011.40 1011.93 1012.39 1012.76 1013.05 1013.28 1013.50 1013.76 1014.06 1014.41 1014.81 1015.21 1015.60 1015.92 1016.17 1016.32 1016.39 1016.39 1016.34 1016.26 1016.16 1016.05 1015.92 1015.76 1015.54 1015.26 1014.90 1014.45 1013.94 1013.37 1012.77 1012.17 1011.59 1011.06 1010.61 1010.24 1009.97 1009.79 1009.70 1009.69 1009.74
1010.91 1011.35 1011.84 1012.32 1012.74 1013.10 1013.39 1013.66 1013.92 1014.22 1014.57 1014.96 1015.39 1015.82 1016.23 1016.58 1016.86 1017.04 1017.14 1017.15 1017.11 1017.02 1016.90 1016.76 1016.59 1016.38 1016.13 1015.81 1015.41 1014.94 1014.38 1013.75 1013.07 1012.36 1011.65 1010.98 1010.36 1009.82 1009.40 1009.09 1008.90 1008.82 1008.83
1011.22 1011.62 1012.06 1012.49 1012.90 1013.26 1013.60 1013.92 1014.26 1014.63 1015.04 1015.48 1015.95 1016.42 1016.85 1017.22 1017.52 1017.73 1017.84 1017.88 1017.85 1017.76 1017.63 1017.46 1017.26 1017.02 1016.73 1016.38 1015.97 1015.48 1014.91 1014.26 1013.55 1012.79 1012.01 1011.24 1010.51 1009.86 1009.31 1008.89 1008.60 1008.43 1008.38
1011.21 1011.58 1012.00 1012.42 1012.83 1013.24 1013.65 1014.06 1014.49 1014.95 1015.43 1015.94 1016.44 1016.93 1017.38 1017.76 1018.08 1018.31 1018.45 1018.51 1018.50 1018.42 1018.29 1018.11 1017.89 1017.63 1017.32 1016.96 1016.54 1016.05 1015.49 1014.86 1014.17 1013.41 1012.63 1011.84 1011.06 1010.35 1009.73 1009.22 1008.84 1008.58 1008.44
1010.89 1011.26 1011.67 1012.11 1012.58 1013.07 1013.57 1014.10 1014.64 1015.19 1015.75 1016.30 1016.84 1017.33 1017.79 1018.18 1018.50 1018.75 1018.92 1019.01 1019.04 1018.99 1018.88 1018.71 1018.49 1018.22 1017.90 1017.53 1017.11 1016.65 1016.12 1015.54 1014.90 1014.20 1013.47 1012.72 1011.97 1011.25 1010.61 1010.05 1009.60 1009.27 1009.03
1010.32 1010.71 1011.16 1011.66 1012.21 1012.81 1013.44 1014.09 1014.74 1015.39 1016.02 1016.61 1017.15 1017.65 1018.09 1018.47 1018.79 1019.06 1019.26 1019.41 1019.48 1019.48 1019.41 1019.26 1019.05 1018.78 1018.46 1018.09 1017.69 1017.25 1016.77 1016.26 1015.70 1015.10 1014.46 1013.80 1013.12 1012.46 1011.83 1011.27 1010.78 1010.38 1010.06
1009.64 1010.08 1010.59 1011.18 1011.84 1012.56 1013.32 1014.10 1014.87 1015.60 1016.28 1016.89 1017.43 1017.91 1018.33 1018.69 1019.01 1019.30 1019.54 1019.73 1019.86 1019.92 1019.90 1019.79 1019.61 1019.35 1019.03 1018.67 1018.28 1017.87 1017.45 1017.00 1016.54 1016.05 1015.53 1014.98 1014.41 1013.83 1013.26 1012.72 1012.23 1011.79 1011.41
1009.00 1009.50 1010.09 1010.78 1011.56 1012.41 1013.30 1014.20 1015.07 1015.87 1016.58 1017.20 1017.73 1018.18 1018.57 1018.92 1019.23 1019.53 1019.81 1020.05 1020.23 1020.36 1020.39 1020.33 1020.17 1019.93 1019.63 1019.27 1018.90 1018.52 1018.14 1017.76 1017.39 1017.01 1016.61 1016.18 1015.72 1015.24 1014.75 1014.25 1013.77 1013.32 1012.91
1008.54 1009.10 1009.78 1010.57 1011.46 1012.42 1013.43 1014.42 1015.36 1016.21 1016.96 1017.58 1018.09 1018.51 1018.88 1019.20 1019.52 1019.83 1020.13 1020.42 1020.66 1020.83 1020.92 1020.89 1020.76 1020.54 1020.25 1019.90 1019.54 1019.18 1018.84 1018.52 1018.23 1017.94 1017.65 1017.33 1016.98 1016.60 1016.18 1015.74 1015.29 1014.85 1014.44
1008.36 1008.99 1009.73 1010.60 1011.57 1012.62 1013.70 1014.77 1015.76 1016.65 1017.40 1018.02 1018.52 1018.93 1019.28 1019.59 1019.91 1020.23 1020.56 1020.88 1021.15 1021.37 1021.48 1021.49 1021.38 1021.17 1020.88 1020.55 1020.19 1019.86 1019.55 1019.28 1019.05 1018.84 1018.64 1018.41 1018.15 1017.84 1017.49 1017.11 1016.70 1016.29 1015.89
1008.51 1009.18 1009.97 1010.89 1011.91 1013.00 1014.12 1015.22 1016.23 1017.13 1017.89 1018.52 1019.02 1019.43 1019.77 1020.09 1020.41 1020.75 1021.09 1021.42 1021.72 1021.95 1022.08 1022.09 1021.99 1021.79 1021.51 1021.18 1020.85 1020.53 1020.26 1020.04 1019.86 1019.71 1019.57 1019.41 1019.21 1018.97 1018.67 1018.34 1017.97 1017.60 1017.23
1008.98 1009.67 1010.48 1011.41 1012.43 1013.52 1014.64 1015.72 1016.73 1017.63 1018.40 1019.03 1019.54 1019.96 1020.33 1020.66 1021.00 1021.35 1021.70 1022.03 1022.32 1022.54 1022.66 1022.67 1022.57 1022.37 1022.10 1021.79 1021.48 1021.19 1020.96 1020.78 1020.65 1020.55 1020.46 1020.35 1020.20 1020.01 1019.75 1019.46 1019.13 1018.79 1018.47
1009.71 1010.41 1011.20 1012.10 1013.08 1014.13 1015.19 1016.24 1017.22 1018.10 1018.86 1019.51 1020.04 1020.49 1020.89 1021.26 1021.61 1021.97 1022.31 1022.63 1022.90 1023.10 1023.20 1023.19 1023.07 1022.87 1022.62 1022.33 1022.06 1021.82 1021.63 1021.50 1021.42 1021.37 1021.33 1021.26 1021.15 1020.99 1020.77 1020.50 1020.21 1019.91 1019.63
1010.62 1011.30 1012.05 1012.88 1013.79 1014.76 1015.74 1016.72 1017.64 1018.49 1019.24 1019.90 1020.46 1020.95 1021.39 1021.79 1022.18 1022.54 1022.88 1023.18 1023.42 1023.57 1023.64 1023.60 1023.48 1023.28 1023.04 1022.80 1022.57 1022.39 1022.26 1022.20 1022.17 1022.18 1022.18 1022.15 1022.08 1021.95 1021.76 1021.52 1021.26 1020.99 1020.74
1011.61 1012.25 1012.94 1013.69 1014.50 1015.36 1016.24 1017.12 1017.97 1018.77 1019.50 1020.16 1020.75 1021.29 1021.77 1022.21 1022.62 1023.00 1023.33 1023.60 1023.81 1023.93 1023.96 1023.90 1023.77 1023.58 1023.38 1023.18 1023.01 1022.90 1022.85 1022.85 1022.90 1022.96 1023.01 1023.03 1022.99 1022.89 1022.74 1022.53 1022.30 1022.06 1021.84
Thickness
5809 5810 5809 5806 5802 5798 5794 5791 5788 5786 5783 5779 5775 5772 5769 5769 5768 5767 5765 5763 5761 5759 5757 5755 5754 5752 5750 5749 5748 5746 5744 5742 5742 5738 5735 5737 5740 5739 5739 5738 5736 5735 5733
5806 5808 5808 5806 5802 5799 5795 5792 5789 5787 5784 5781 5778 5774 5771 5769 5768 5766 5764 5763 5761 5759 5757 5755 5753 5752 5750 5748 5747 5745 5742 5741 5741 5736 5730 5726 5729 5735 5740 5738 5737 5736 5735
5808 5809 5808 5806 5803 5800 5797 5796 5791 5788 5785 5783 5778 5774 5770 5767 5765 5763 5762 5762 5761 5759 5757 5756 5754 5752 5750 5748 5747 5745 5742 5738 5739 5739 5732 5724 5720 5726 5734 5738 5738 5737 5735
5814 5811 5810 5808 5806 5804 5802 5798 5793 5790 5787 5784 5779 5773 5767 5763 5764 5763 5762 5762 5761 5759 5757 5756 5754 5752 5750 5748 5747 5746 5744 5741 5737 5738 5737 5734 5731 5724 5724 5732 5736 5737 5736
5819 5816 5815 5813 5811 5807 5803 5799 5794 5791 5788 5785 5780 5775 5770 5767 5766 5764 5762 5761 5760 5759 5757 5756 5754 5753 5751 5749 5748 5747 5745 5743 5739 5737 5736 5734 5732 5730 5723 5722 5728 5732 5736
5821 5819 5819 5815 5811 5808 5804 5800 5794 5791 5788 5785 5782 5777 5772 5769 5765 5763 5760 5759 5759 5758 5758 5756 5755 5754 5752 5750 5749 5748 5746 5744 5742 5740 5737 5734 5731 5728 5726 5723 5724 5726 5732
5820 5817 5815 5813 5810 5807 5804 5801 5796 5791 5789 5786 5783 5779 5776 5772 5767 5765 5762 5760 5758 5757 5758 5757 5756 5755 5753 5752 5750 5748 5747 5745 5743 5741 5739 5738 5736 5734 5731 5726 5724 5725 5729
5822 5820 5818 5816 5812 5809 5805 5801 5797 5793 5790 5787 5784 5781 5778 5774 5771 5768 5765 5762 5761 5760 5760 5759 5757 5755 5754 5752 5750 5749 5747 5746 5744 5743 5741 5739 5738 5737 5734 5730 5725 5722 5724
5819 5820 5820 5817 5813 5810 5807 5804 5799 5794 5791 5788 5785 5782 5779 5776 5773 5770 5767 5765 5763 5762 5760 5759 5757 5755 5753 5752 5750 5748 5747 5746 5745 5743 5742 5740 5740 5739 5738 5735 5731 5723 5718
5819 5819 5818 5816 5814 5812 5809 5805 5801 5796 5793 5790 5786 5783 5779 5777 5774 5770 5767 5765 5764 5763 5761 5758 5756 5754 5753 5751 5750 5749 5747 5745 5744 5742 5741 5740 5740 5739 5738 5736 5733 5730 5724
5818 5819 5819 5817 5815 5810 5807 5804 5801 5796 5792 5789 5786 5783 5780 5777 5774 5771 5768 5766 5764 5762 5760 5758 5756 5753 5752 5751 5750 5748 5747 5744 5742 5742 5740 5739 5739 5738 5737 5736 5734 5731 5728
5817 5818 5817 5814 5811 5807 5805 5803 5800 5796 5793 5790 5786 5783 5780 5777 5773 5771 5769 5767 5764 5762 5760 5757 5755 5753 5751 5749 5747 5746 5745 5743 5741 5740 5739 5739 5738 5736 5736 5734 5733 5731 5730
5811 5811 5811 5809 5807 5805 5804 5801 5798 5794 5791 5788 5784 5781 5778 5775 5772 5770 5768 5766 5764 5761 5758 5755 5753 5750 5749 5747 5746 5745 5744 5742 5741 5740 5739 5738 5736 5735 5734 5733 5732 5731 5730
5804 5804 5804 5804 5804 5802 5801 5798 5795 5792 5789 5785 5781 5778 5777 5775 5772 5770 5767 5765 5763 5760 5757 5754 5752 5750 5748 5746 5744 5743 5741 5740 5739 5739 5738 5737 5735 5734 5733 5732 5730 5729 5727
5794 5797 5798 5798 5799 5798 5796 5794 5791 5789 5788 5783 5779 5778 5777 5775 5772 5768 5766 5764 5762 5759 5756 5753 5751 5748 5746 5744 5742 5740 5739 5737 5736 5736 5735 5735 5734 5734 5732 5730 5728 5726 5723
5789 5790 5792 5792 5792 5793 5791 5789 5787 5786 5784 5780 5777 5776 5774 5772 5769 5767 5764 5761 5758 5756 5753 5750 5748 5745 5744 5742 5740 5738 5736 5734 5732 5731 5731 5731 5730 5730 5728 5727 5726 5723 5719
5784 5783 5784 5785 5786 5788 5788 5784 5784 5782 5779 5776 5774 5773 5771 5769 5766 5764 5760 5757 5754 5752 5749 5747 5744 5741 5739 5738 5736 5735 5733 5730 5728 5726 5725 5725 5725 5723 5722 5721 5720 5717 5716
5777 5777 5778 5779 5780 5782 5783 5782 5780 5777 5774 5771 5770 5769 5768 5764 5762 5759 5755 5753 5751 5749 5746 5743 5740 5737 5735 5734 5731 5730 5728 5726 5723 5721 5719 5717 5716 5716 5715 5713 5711 5708 5707
5772 5773 5774 5774 5773 5774 5776 5775 5772 5770 5767 5765 5764 5764 5763 5760 5757 5753 5751 5749 5746 5744 5741 5738 5735 5732 5730 5729 5727 5726 5723 5719 5716 5715 5713 5711 5710 5709 5708 5706 5702 5700 5699
5766 5766 5766 5766 5765 5767 5769 5767 5764 5762 5760 5759 5759 5758 5757 5754 5751 5749 5747 5744 5742 5738 5735 5732 5730 5727 5724 5723 5722 5720 5717 5713 5709 5707 5705 5704 5703 5701 5700 5697 5694 5691 5690
5757 5757 5757 5756 5756 5759 5760 5757 5754 5752 5753 5754 5753 5751 5750 5748 5745 5743 5741 5738 5735 5731 5728 5725 5723 5721 5719 5717 5715 5713 5711 5706 5702 5699 5697 5696 5695 5693 5691 5689 5686 5683 5682
5748 5749 5748 5746 5748 5750 5749 5746 5744 5745 5746 5746 5743 5741 5740 5740 5738 5734 5732 5730 5727 5723 5719 5716 5714 5712 5711 5710 5708 5706 5703 5700 5696 5692 5690 5688 5687 5685 5682 5680 5678 5676 5674
5740 5740 5740 5739 5739 5740 5740 5737 5737 5738 5737 5735 5733 5732 5731 5729 5727 5725 5723 5721 5718 5715 5711 5708 5705 5703 5702 5700 5699 5697 5695 5692 5688 5685 5683 5681 5678 5676 5673 5670 5668 5666 5663
5731 5732 5732 5730 5729 5730 5731 5731 5731 5731 5729 5726 5723 5722 5720 5717 5716 5715 5713 5710 5708 5706 5703 5700 5697 5694 5692 5690 5689 5687 5685 5682 5679 5676 5673 5671 5668 5665 5662 5659 5657 5654 5651
5723 5723 5722 5721 5721 5722 5722 5723 5722 5721 5718 5716 5714 5711 5709 5707 5704 5701 5699 5698 5696 5695 5693 5690 5688 5685 5682 5680 5680 5678 5676 5673 5670 5667 5663 5659 5656 5653 5650 5647 5644 5641 5639
5714 5714 5713 5713 5713 5713 5713 5713 5713 5712 5710 5707 5704 5702 5699 5697 5695 5692 5688 5685 5684 5683 5683 5680 5678 5675 5672 5671 5670 5669 5666 5663 5661 5657 5651 5647 5643 5640 5637 5634 5631 5628 5625